Date,TemperatureHighF,TemperatureAvgF,TemperatureLowF,DewpointHighF,DewpointAvgF,DewpointLowF,HumidityHigh,HumidityAvg,HumidityLow,PressureMaxIn,PressureMinIn,WindSpeedMaxMPH,WindSpeedAvgMPH,GustSpeedMaxMPH,PrecipitationSumIn
2013-1-1,39.0,35.7,31.9,33.4,30.8,28.2,88,82,74,29.97,29.85,12,5,16,0.00
2013-1-2,41.1,38.7,35.6,37.8,32.6,31.0,89,79,69,30.44,29.94,15,7,21,0.00
2013-1-3,43.4,39.0,35.1,41.0,34.8,30.5,92,85,76,30.46,30.35,24,11,30,0.02
2013-1-4,49.2,46.2,43.3,45.8,42.1,38.3,93,86,71,30.47,30.21,19,8,27,0.33
2013-1-5,48.9,44.7,40.9,45.0,41.5,38.7,97,89,81,30.38,30.20,22,6,29,0.00
2013-1-6,44.3,42.3,40.4,41.3,39.6,38.4,97,90,84,30.37,30.16,16,5,23,0.04
2013-1-7,44.6,39.4,37.3,41.6,37.6,35.7,97,94,88,30.39,30.22,12,2,17,0.06
2013-1-8,41.7,39.6,36.5,40.4,38.1,35.7,98,95,90,30.36,30.21,12,3,14,0.09
2013-1-9,42.2,40.6,39.1,40.2,38.2,35.9,97,91,87,30.24,29.92,12,5,17,0.00
2013-1-10,39.3,37.0,35.3,36.0,33.9,31.5,94,88,80,29.91,29.74,15,7,20,0.13
2013-1-11,35.2,28.4,26.1,32.5,24.0,19.5,96,84,74,30.07,29.75,15,5,22,0.05
2013-1-12,29.1,26.2,24.6,22.7,20.0,17.2,87,78,68,30.14,30.05,10,4,14,0.00
2013-1-13,26.3,25.3,24.1,23.6,21.2,18.4,92,85,75,30.14,30.11,13,2,15,0.00
2013-1-14,27.6,25.6,24.6,26.3,23.7,21.5,95,93,87,30.11,29.95,15,3,18,0.09
2013-1-15,27.1,24.6,21.7,24.5,22.8,20.0,94,93,88,29.98,29.81,11,2,12,0.00
2013-1-16,27.0,26.1,25.1,26.0,24.5,23.7,96,94,92,29.84,29.78,13,2,15,0.00
2013-1-17,27.3,25.6,23.8,24.8,23.1,21.3,94,91,84,29.97,29.80,15,6,20,0.01
2013-1-18,23.8,21.1,19.3,22.4,19.2,17.6,96,92,89,29.96,29.77,12,4,18,0.04
2013-1-19,21.0,20.2,19.1,18.4,17.0,15.8,91,87,83,29.77,29.61,9,3,14,0.00
2013-1-20,26.3,23.2,20.0,24.8,21.0,17.2,94,91,89,29.63,29.52,10,3,13,0.00
2013-1-21,26.2,24.0,20.0,24.7,22.8,18.5,97,96,93,29.65,29.50,9,2,11,0.03
2013-1-22,21.4,19.6,17.7,18.6,16.5,15.0,94,88,82,29.85,29.65,7,2,8,0.00
2013-1-23,23.4,21.4,19.2,21.7,18.5,16.4,95,89,86,29.88,29.84,6,2,8,0.00
2013-1-24,22.7,21.9,19.8,21.2,19.6,17.0,95,91,87,30.06,29.85,11,3,14,0.00
2013-1-25,21.6,19.0,14.7,18.0,16.2,12.6,93,89,86,30.21,30.06,10,3,13,0.00
2013-1-26,17.3,12.3,6.1,14.1,10.0,3.8,93,91,85,30.16,30.09,8,2,10,0.00
2013-1-27,29.9,24.7,15.6,29.1,22.2,13.3,97,90,86,30.09,29.81,8,4,12,0.02
2013-1-28,37.1,33.7,29.9,33.0,31.5,29.1,97,92,85,30.13,29.82,12,4,16,0.02
2013-1-29,41.8,38.4,34.4,39.5,35.8,32.4,93,91,83,30.12,29.90,27,9,27,0.05
2013-1-30,54.3,47.7,40.9,48.9,44.4,39.2,95,89,76,29.93,29.70,27,10,32,0.21
2013-1-31,46.5,43.6,37.4,37.1,33.9,31.0,92,69,56,29.95,29.79,24,10,33,0.06
2013-2-1,43.7,40.2,37.4,36.9,35.2,32.8,95,83,72,29.87,29.30,18,8,23,0.03
2013-2-2,39.2,36.5,29.9,38.1,32.0,22.3,96,84,72,29.79,29.21,22,7,30,0.03
2013-2-3,36.0,31.9,27.4,30.5,24.8,22.0,92,75,63,30.00,29.79,22,5,26,0.00
2013-2-4,40.5,36.0,31.6,37.4,33.2,29.4,95,90,86,29.85,29.74,26,10,31,0.04
2013-2-5,43.6,39.1,34.9,36.9,33.8,29.9,91,82,67,29.85,29.51,20,7,24,0.00
2013-2-6,38.4,34.2,30.8,29.9,24.9,21.3,89,69,51,29.64,29.52,14,3,17,0.00
2013-2-7,35.4,31.5,29.2,30.7,26.6,24.2,95,82,70,29.86,29.64,10,2,14,0.00
2013-2-8,33.9,29.5,26.3,28.4,25.0,23.0,93,83,67,29.98,29.85,7,2,13,0.00
2013-2-9,30.3,28.2,26.4,26.2,23.5,21.2,94,83,71,30.10,29.98,7,2,10,0.00
2013-2-10,30.3,27.7,25.0,23.9,21.0,16.3,89,76,60,30.10,29.96,12,2,14,0.00
2013-2-11,27.9,26.3,23.5,22.6,20.7,17.5,88,80,67,29.95,29.82,14,5,21,0.00
2013-2-12,28.2,27.3,25.8,27.2,24.8,22.3,96,91,82,29.99,29.79,13,5,19,0.09
2013-2-13,29.3,27.7,26.5,27.1,25.4,24.2,97,91,85,30.37,29.99,11,3,16,0.00
2013-2-14,28.6,27.2,26.7,26.2,24.9,24.2,93,91,89,30.37,30.30,8,3,11,0.00
2013-2-16,34.7,33.4,32.7,31.6,31.2,30.8,95,92,87,30.30,30.27,4,0,7,0.00
2013-2-17,33.8,32.4,30.8,31.7,30.5,29.1,97,93,86,30.30,30.27,6,1,7,0.00
2013-2-18,34.1,32.1,30.5,30.2,29.1,27.8,95,89,79,30.27,30.14,6,1,7,0.00
2013-2-19,32.0,30.7,28.8,31.2,28.4,26.0,97,92,79,30.14,29.86,16,6,20,0.08
2013-2-20,30.3,27.6,24.5,26.4,24.7,22.6,94,89,74,30.19,30.00,13,5,20,0.00
2013-2-21,25.5,23.6,21.7,22.8,20.7,18.1,95,89,80,30.21,30.14,10,3,13,0.00
2013-2-22,23.5,21.7,19.5,22.2,18.8,15.4,96,89,80,30.14,29.93,13,6,16,0.05
2013-2-23,27.9,25.2,22.1,27.1,24.1,20.8,97,96,93,29.93,29.80,11,4,15,0.17
2013-2-24,34.7,31.2,26.8,34.1,30.5,25.9,98,97,95,30.01,29.81,8,2,13,0.18
2013-2-25,39.7,37.4,34.3,39.4,36.7,33.7,99,98,94,30.31,29.98,7,3,13,0.11
2013-2-26,38.2,35.6,31.6,37.6,34.3,30.8,98,95,90,30.42,30.29,13,5,19,0.00
2013-2-27,33.6,33.0,31.6,32.3,31.8,30.8,97,96,95,30.47,30.42,8,3,13,0.00
2013-2-28,37.3,34.5,32.2,33.8,31.8,30.5,97,90,80,30.46,30.25,7,2,11,0.00
2013-3-1,36.5,33.8,32.6,31.5,29.8,27.4,91,85,77,30.29,30.18,10,4,15,0.00
2013-3-2,40.6,34.7,29.8,27.8,26.1,24.3,85,71,56,30.32,30.17,12,4,16,0.00
2013-3-3,36.9,33.2,29.2,29.8,26.7,23.7,82,77,70,30.28,30.14,15,5,18,0.00
2013-3-4,43.7,37.0,30.7,29.6,26.6,24.1,86,67,46,30.33,30.23,12,3,15,0.00
2013-3-5,49.4,38.6,29.3,33.3,28.8,24.4,84,69,50,30.23,29.92,13,4,16,0.00
2013-3-6,51.8,41.8,31.5,38.4,32.5,28.0,88,71,55,29.92,29.68,10,2,12,0.00
2013-3-7,48.5,43.3,38.1,43.9,39.6,35.9,96,87,77,29.69,29.62,6,2,9,0.00
2013-3-8,46.2,43.1,38.6,43.6,41.7,37.8,98,95,89,29.69,29.66,8,2,12,0.00
2013-3-9,40.1,38.6,36.7,39.8,38.1,36.1,99,99,97,29.69,29.62,6,1,7,0.03
2013-3-10,54.0,44.9,39.5,46.2,41.3,37.3,99,89,56,29.62,29.46,9,2,14,0.00
2013-3-11,44.6,28.5,24.5,41.2,25.8,21.7,96,90,85,29.74,29.47,11,4,17,0.03
2013-3-12,28.0,25.4,23.7,24.7,22.8,21.0,94,90,86,29.73,29.58,9,4,12,0.00
2013-3-13,26.2,23.6,21.8,22.7,20.3,18.1,98,88,79,29.79,29.57,11,4,15,0.06
2013-3-14,29.7,24.0,19.6,19.0,16.8,14.7,92,75,55,29.88,29.79,17,5,20,0.00
2013-3-15,30.2,24.7,20.6,20.5,18.3,15.2,90,77,56,30.13,29.86,15,5,19,0.00
2013-3-16,37.3,28.1,19.1,21.5,16.3,10.7,85,63,34,30.21,30.07,11,3,15,0.00
2013-3-17,41.1,31.4,22.6,22.2,19.2,15.3,76,61,46,30.08,29.73,23,7,28,0.00
2013-3-18,40.0,32.1,27.9,32.1,26.9,22.1,97,82,64,29.73,29.28,14,5,19,0.11
2013-3-19,40.1,34.1,30.7,35.0,31.6,29.6,97,91,80,29.63,29.27,17,4,20,0.13
2013-3-20,49.6,42.3,34.8,37.9,34.7,31.6,92,75,58,29.82,29.70,14,5,16,0.02
2013-3-21,38.2,34.0,28.8,35.8,28.8,23.7,92,81,68,30.12,29.82,17,5,22,0.00
2013-3-22,30.4,28.4,26.6,24.6,22.4,19.8,90,78,66,30.19,30.11,13,5,18,0.00
2013-3-23,30.3,24.1,16.3,21.2,13.2,5.5,81,64,42,30.28,30.17,19,7,25,0.00
2013-3-24,32.4,22.1,14.3,14.7,7.7,2.6,71,55,31,30.27,30.15,22,8,28,0.00
2013-3-25,29.4,24.7,20.8,16.3,13.7,11.7,74,63,49,30.16,29.98,21,8,26,0.00
2013-3-26,31.4,27.1,24.0,14.5,10.7,6.7,63,50,36,29.98,29.91,19,7,29,0.00
2013-3-27,29.6,26.3,23.2,25.1,20.1,12.5,92,78,56,29.98,29.93,16,4,19,0.00
2013-3-28,38.5,32.0,26.7,28.6,26.1,23.0,92,79,63,29.97,29.82,12,4,18,0.00
2013-3-29,40.8,35.0,30.8,32.9,27.5,22.4,96,75,53,29.82,29.70,17,5,24,0.05
2013-3-30,41.7,36.4,31.5,28.9,26.4,24.4,79,67,56,29.78,29.71,13,5,18,0.00
2013-3-31,35.4,31.7,29.4,28.1,26.1,24.3,92,80,67,29.84,29.74,13,5,20,0.00
2013-4-1,35.2,30.8,27.4,27.3,24.5,22.3,90,78,66,29.94,29.82,11,4,13,0.00
2013-4-2,38.2,32.4,27.7,27.4,25.2,23.3,90,75,59,30.00,29.91,13,5,21,0.00
2013-4-3,36.3,32.2,29.9,26.6,25.5,23.8,85,76,63,30.02,29.99,14,5,18,0.00
2013-4-4,36.9,32.4,29.6,29.5,28.0,26.2,90,84,73,30.00,29.90,8,3,12,0.00
2013-4-5,36.6,33.7,31.4,31.2,30.0,29.0,92,87,80,29.90,29.79,8,4,12,0.00
2013-4-6,37.9,34.9,32.9,32.3,30.9,30.0,92,86,77,30.18,29.90,11,4,15,0.00
2013-4-7,40.5,35.3,32.3,31.3,29.2,24.6,92,80,57,30.20,30.10,8,2,14,0.00
2013-4-8,47.4,39.1,28.1,29.3,25.9,23.2,86,61,43,30.10,29.77,15,4,19,0.00
2013-4-9,50.1,42.4,37.2,39.3,33.9,27.7,93,72,59,29.77,29.69,18,3,22,0.09
2013-4-10,52.9,45.3,38.7,41.9,39.7,36.5,96,81,62,29.88,29.69,17,5,22,0.02
2013-4-11,57.7,48.8,41.4,48.8,42.1,37.5,87,78,59,29.88,29.66,19,6,25,0.00
2013-4-12,56.0,51.3,46.9,50.5,45.1,40.2,97,80,62,29.83,29.57,24,6,33,0.15
2013-4-13,56.8,49.8,45.1,42.3,39.9,36.6,82,70,47,30.27,29.83,18,7,25,0.00
2013-4-14,62.7,57.4,47.8,42.2,39.9,38.1,75,53,42,30.40,30.34,9,2,12,0.00
2013-4-15,68.6,57.2,44.4,43.3,39.8,35.0,84,55,33,30.35,30.17,16,4,19,0.00
2013-4-16,68.6,59.0,48.6,48.6,41.4,35.5,71,53,39,30.19,30.12,9,3,13,0.01
2013-4-17,69.7,62.2,53.9,53.0,49.6,46.6,88,65,45,30.25,30.16,8,2,11,0.00
2013-4-18,77.9,65.5,51.8,53.0,49.7,46.4,83,59,35,30.16,29.96,14,5,21,0.00
2013-4-19,63.1,56.9,49.7,54.2,42.2,35.0,88,60,42,30.22,30.02,12,3,16,0.05
2013-4-20,49.9,47.9,44.5,43.9,41.3,38.9,86,78,69,30.34,30.29,13,6,15,0.06
2013-4-21,66.1,53.8,43.4,49.2,43.5,37.7,82,69,54,30.31,29.98,14,5,18,0.00
2013-4-22,68.8,56.9,47.0,52.7,48.1,42.0,84,73,51,30.05,29.95,8,2,11,0.06
2013-4-23,65.4,58.3,50.4,50.2,45.0,38.1,89,64,44,30.24,30.05,15,5,23,0.00
2013-4-24,70.1,60.7,48.8,45.4,42.0,36.4,74,52,37,30.35,30.24,11,4,16,0.00
2013-4-25,74.6,65.1,52.7,48.7,46.4,44.3,76,52,34,30.31,30.13,13,4,17,0.00
2013-4-26,78.5,67.6,53.7,52.0,46.2,41.5,72,49,29,30.13,29.58,17,4,19,0.00
2013-4-27,68.7,56.4,45.6,53.6,49.8,43.9,95,80,49,29.75,29.58,27,6,30,0.17
2013-4-28,50.0,45.2,41.1,44.1,41.4,38.4,97,87,74,30.08,29.70,17,4,21,0.19
2013-4-29,54.6,50.7,46.6,48.4,45.8,42.7,92,84,77,30.18,30.02,11,3,12,0.01
2013-4-30,61.3,53.3,47.4,50.4,46.9,44.7,92,80,67,30.19,30.08,17,5,22,0.00
2013-5-1,56.1,50.1,45.4,49.6,46.2,43.7,100,87,78,30.28,30.14,11,4,16,0.00
2013-5-2,60.1,55.2,48.2,54.5,51.3,47.6,98,87,79,30.13,30.03,13,4,19,0.06
2013-5-3,52.8,51.4,49.5,50.1,46.7,44.8,95,84,81,30.04,29.98,10,4,14,0.06
2013-5-4,63.9,53.8,47.8,52.8,47.7,43.0,93,80,63,30.14,30.03,14,2,18,0.13
2013-5-5,64.2,56.3,49.5,53.0,50.4,47.7,95,81,63,30.27,30.14,12,3,19,0.00
2013-5-6,63.2,57.6,51.7,57.7,53.1,48.2,93,85,80,30.24,30.03,12,4,15,0.02
2013-5-7,71.2,63.2,56.4,60.6,57.1,54.8,97,81,62,30.04,29.94,18,5,21,0.03
2013-5-8,74.8,63.9,57.0,59.7,56.9,53.9,95,79,51,30.02,29.92,13,3,17,0.01
2013-5-9,74.3,65.6,55.4,60.0,56.1,53.7,95,73,51,30.00,29.90,9,2,11,0.00
2013-5-10,63.6,57.1,54.4,57.1,54.7,50.7,100,92,75,30.03,29.85,10,3,18,0.63
2013-5-11,55.3,53.5,51.4,50.9,49.1,47.8,93,85,79,30.03,29.97,8,2,9,0.00
2013-5-12,62.9,53.6,47.7,48.9,44.8,39.0,93,73,45,30.06,29.89,19,5,26,0.02
2013-5-13,56.5,48.2,41.6,45.9,41.0,36.7,87,77,49,30.10,30.02,15,6,27,0.02
2013-5-14,64.1,56.3,49.2,47.8,45.0,41.6,92,68,47,30.02,29.84,10,4,15,0.00
2013-5-15,72.3,61.0,47.5,52.8,48.8,44.5,90,66,46,29.85,29.62,18,6,24,0.00
2013-5-16,74.0,64.6,53.3,54.0,50.5,46.0,87,62,38,29.62,29.47,26,8,33,0.01
2013-5-17,73.0,64.8,58.3,56.7,53.6,50.3,81,68,50,29.56,29.49,24,7,26,0.00
2013-5-18,67.6,59.6,52.8,55.9,50.6,47.0,93,74,49,29.87,29.56,16,4,25,0.17
2013-5-19,74.6,61.7,50.5,56.8,51.9,47.8,94,72,49,29.86,29.63,31,5,37,0.09
2013-5-20,65.4,56.9,48.0,50.3,44.9,41.7,92,66,43,29.92,29.77,13,5,19,0.00
2013-5-21,64.6,56.7,48.0,48.2,44.0,40.5,83,64,43,29.94,29.81,13,4,16,0.01
2013-5-22,60.0,51.1,45.5,50.2,45.0,39.7,91,80,62,29.87,29.68,16,5,27,0.10
2013-5-23,52.8,47.8,43.6,40.5,37.2,34.9,82,67,54,29.87,29.75,17,2,18,0.00
2013-5-24,52.7,47.2,40.3,43.0,40.2,36.4,90,77,62,29.88,29.76,12,4,18,0.01
2013-5-25,53.0,46.3,42.2,45.9,42.0,38.7,93,85,74,29.88,29.82,14,4,20,0.09
2013-5-26,45.9,43.9,41.7,42.3,40.8,39.7,95,89,82,29.83,29.70,17,8,24,0.22
2013-5-27,55.0,48.6,42.5,48.6,45.5,41.1,97,90,78,29.84,29.67,15,7,20,0.33
2013-5-28,63.8,54.2,45.7,51.5,46.7,43.5,92,77,50,29.83,29.57,12,4,15,0.00
2013-5-29,63.3,55.2,47.5,56.3,51.2,46.4,98,87,69,29.68,29.54,11,2,15,0.18
2013-5-30,51.8,49.4,47.2,50.9,47.8,46.1,100,94,88,29.70,29.47,15,6,22,1.03
2013-5-31,57.8,53.0,50.2,53.9,49.7,46.3,100,89,69,29.70,29.44,11,2,19,0.17
2013-6-1,57.5,52.0,48.0,56.8,50.0,45.4,98,93,81,29.76,29.67,15,5,20,0.80
2013-6-2,55.9,51.1,47.9,55.3,49.2,45.4,98,94,86,30.07,29.70,20,8,26,0.93
2013-6-3,51.7,47.6,44.9,48.0,45.7,43.7,96,93,87,30.16,30.07,19,7,21,0.60
2013-6-4,59.5,54.0,49.1,52.9,49.5,45.9,93,85,73,30.14,30.08,15,5,20,0.02
2013-6-5,63.6,56.2,47.9,52.3,47.4,42.9,92,74,50,30.15,30.10,13,6,19,0.00
2013-6-6,66.7,58.9,53.2,56.6,53.0,49.4,93,81,65,30.20,30.14,7,2,11,0.00
2013-6-7,72.4,63.7,54.1,59.7,56.3,52.6,96,78,59,30.17,30.08,9,2,11,0.00
2013-6-8,76.9,67.2,58.0,60.3,58.0,55.2,94,74,49,30.10,29.91,12,2,14,0.00
2013-6-9,77.5,64.4,57.9,61.8,57.9,55.3,94,81,51,29.91,29.72,20,3,25,0.32
2013-6-10,60.3,58.0,56.1,58.7,56.1,51.9,98,94,82,29.89,29.71,11,4,18,0.29
2013-6-11,68.4,61.5,53.9,52.6,47.8,43.5,87,63,42,30.09,29.89,18,6,22,0.00
2013-6-12,75.4,65.8,55.0,52.0,46.9,44.4,75,52,35,30.17,30.09,7,1,11,0.00
2013-6-13,63.5,62.8,62.1,49.3,48.2,46.9,63,59,55,30.15,30.15,5,3,6,0.00
2013-6-14,61.2,61.0,60.9,49.5,49.3,49.1,66,65,65,30.09,30.09,4,1,6,0.06
2013-6-15,75.5,65.8,54.3,58.7,53.0,49.1,86,65,43,30.09,29.95,13,3,16,0.00
2013-6-16,77.4,69.6,61.2,56.4,52.5,47.3,79,56,38,30.07,29.99,15,3,18,0.00
2013-6-17,85.4,72.8,59.9,64.8,59.3,52.8,81,64,47,30.07,29.97,11,2,14,0.00
2013-6-18,92.2,79.8,67.7,72.3,67.8,63.0,86,68,48,30.03,29.96,9,2,12,0.00
2013-6-19,91.2,81.1,70.4,74.7,68.4,65.1,88,67,43,30.03,29.90,14,4,21,0.00
2013-6-20,92.2,81.5,71.3,73.2,68.5,60.1,86,66,44,29.91,29.74,28,4,32,0.00
2013-6-21,76.8,70.1,63.6,62.0,58.7,55.8,92,69,52,30.03,29.82,21,5,39,0.13
2013-6-22,80.7,71.2,63.8,60.9,56.9,53.6,82,61,43,30.05,29.94,10,2,12,0.00
2013-6-23,73.4,68.2,62.4,59.8,56.5,49.9,88,67,50,29.99,29.90,17,4,22,0.07
2013-6-24,64.0,57.2,54.1,54.4,51.7,47.2,96,83,56,30.09,29.98,15,4,20,0.31
2013-6-25,54.2,52.9,50.6,53.3,50.7,47.2,97,92,87,30.19,30.03,20,8,23,1.22
2013-6-26,55.0,51.2,49.2,48.1,45.8,41.4,93,82,61,30.31,30.17,15,6,22,0.03
2013-6-27,61.5,54.8,49.0,47.0,44.8,40.8,85,70,50,30.31,30.21,9,3,13,0.00
2013-6-28,65.7,58.3,47.4,50.3,45.9,40.8,93,66,43,30.22,30.11,7,2,12,0.00
2013-6-29,65.8,58.9,51.4,53.7,49.2,46.2,92,71,52,30.13,30.02,14,5,19,0.00
2013-6-30,62.3,56.0,49.2,53.8,44.5,38.8,93,67,47,30.23,30.10,13,4,19,0.01
2013-7-1,73.8,64.5,54.5,51.2,48.2,45.7,75,57,41,30.17,30.05,12,4,15,0.00
2013-7-2,79.7,69.5,57.0,57.3,53.0,49.8,80,57,40,30.06,29.95,10,3,15,0.00
2013-7-3,76.7,67.4,59.8,65.4,57.8,54.0,89,72,56,29.99,29.89,18,3,22,0.06
2013-7-4,73.8,67.4,61.6,61.3,60.0,58.5,96,78,61,30.23,29.98,9,3,12,0.02
2013-7-5,73.7,67.2,63.8,61.8,60.2,58.4,88,79,60,30.38,30.23,12,3,17,0.00
2013-7-6,74.0,67.2,61.1,62.0,59.7,57.4,91,78,60,30.40,30.34,14,4,15,0.00
2013-7-7,75.8,69.2,60.5,59.1,55.0,49.4,86,62,42,30.42,30.35,11,4,15,0.00
2013-7-8,76.8,69.0,61.2,56.8,54.6,52.3,77,61,45,30.42,30.32,10,3,14,0.00
2013-7-9,78.9,72.1,61.3,59.0,56.4,53.9,81,59,44,30.34,30.11,12,2,13,0.00
2013-7-10,78.4,70.6,62.6,58.9,56.1,53.7,74,61,44,30.11,29.93,15,4,19,0.00
2013-7-11,62.6,59.1,54.9,54.8,50.5,48.7,80,73,63,30.10,29.99,18,5,20,0.00
2013-7-12,69.8,62.9,56.8,55.0,51.2,49.6,79,67,52,30.14,30.09,12,5,18,0.00
2013-7-13,62.1,60.5,59.0,53.7,52.1,50.9,75,74,72,30.14,30.13,5,2,6,0.00
2013-7-14,74.0,66.6,59.6,57.1,53.3,50.4,76,63,48,30.16,30.10,13,4,15,0.00
2013-7-15,68.9,63.4,57.6,56.9,51.7,47.1,86,67,47,30.23,30.12,13,4,20,0.00
2013-7-16,78.5,68.4,54.6,54.6,51.2,49.2,84,56,39,30.27,30.18,9,2,11,0.00
2013-7-17,80.5,71.2,60.5,57.7,53.5,50.8,78,55,37,30.22,30.16,11,2,15,0.00
2013-7-18,81.4,72.3,62.9,58.1,55.1,52.4,76,56,39,30.21,30.14,12,3,15,0.00
2013-7-19,81.5,73.0,64.6,60.2,56.8,54.2,76,58,42,30.17,30.05,12,3,16,0.00
2013-7-20,77.0,69.4,63.0,58.7,55.0,50.8,77,61,43,30.15,30.08,13,4,18,0.00
2013-7-21,80.8,71.6,60.8,57.1,53.5,50.2,81,55,37,30.21,30.13,8,2,13,0.00
2013-7-22,85.1,74.0,60.7,58.2,51.8,-99.9,80,49,27,30.14,29.98,16,1,18,0.00
2013-7-23,74.2,20.2,74.1,50.2,-59.0,-99.9,43,12,43,29.99,29.99,20,6,20,0.00
2013-7-24,-200.0,0.0,200.0,-99.9,-99.9,-99.9,0,0,100,0.00,40.00,12,7,20,0.00
2013-7-25,-200.0,0.0,200.0,-99.9,-99.9,-99.9,0,0,100,0.00,40.00,13,6,17,0.00
2013-7-26,89.0,81.9,78.4,62.5,55.7,-99.9,56,44,37,29.99,29.93,6,1,14,0.00
2013-7-27,94.0,82.8,68.2,65.4,60.9,56.3,80,51,32,29.94,29.80,8,3,11,0.00
2013-7-28,96.2,84.2,73.1,66.1,61.2,57.5,68,48,29,29.90,29.80,9,3,11,0.00
2013-8-1,83.9,79.7,73.4,59.3,58.3,57.0,61,49,41,30.09,30.04,6,2,10,0.00
2013-8-2,93.1,79.6,64.3,62.5,58.7,54.5,84,53,29,30.06,29.95,11,2,12,0.00
2013-8-3,96.3,82.7,69.1,65.9,61.0,53.0,73,50,25,30.05,29.94,11,2,13,0.00
2013-8-4,78.2,69.2,62.7,66.5,63.1,60.3,93,82,58,30.18,30.03,27,6,29,1.20
2013-8-5,81.8,70.4,60.7,65.9,62.5,59.2,96,78,58,30.18,30.03,7,2,10,0.00
2013-8-6,90.6,78.3,64.9,67.3,63.5,59.7,90,63,39,30.03,29.86,28,3,45,0.06
2013-8-7,83.4,73.7,62.8,66.7,63.8,61.0,95,73,56,30.02,29.84,18,4,30,0.15
2013-8-8,81.2,76.3,70.5,68.0,64.2,58.8,81,67,55,30.04,29.81,14,3,19,0.00
2013-8-9,70.7,61.8,55.8,63.8,56.3,-99.9,96,85,71,30.14,30.03,14,5,17,0.24
2013-8-10,57.6,23.2,56.8,54.5,-37.3,-99.9,92,37,88,30.14,30.13,10,4,13,0.00
2013-8-11,71.5,64.8,60.5,58.4,46.7,-99.9,73,57,49,30.11,30.04,16,4,18,0.00
2013-8-12,75.4,65.7,53.0,55.9,49.4,-99.9,87,59,40,30.11,29.92,9,3,18,0.00
2013-8-13,70.4,63.9,59.3,55.2,50.1,42.7,79,62,38,30.13,29.90,14,5,20,0.00
2013-8-14,69.3,60.5,52.3,48.8,46.3,42.0,82,61,40,30.21,30.13,9,3,17,0.00
2013-8-15,-200.0,0.0,200.0,-99.9,-99.9,-99.9,0,0,100,0.00,40.00,3,3,18,0.00
2013-8-16,69.7,51.1,65.8,49.1,12.6,-99.9,55,39,47,30.10,30.10,5,2,19,0.00
2013-8-17,82.3,70.4,55.6,54.8,50.6,45.9,77,52,32,30.10,29.98,10,2,18,0.00
2013-8-18,85.3,74.7,62.9,60.3,56.1,51.6,72,54,36,30.01,29.93,13,3,18,0.00
2013-8-19,72.5,65.2,59.8,62.3,58.9,54.9,97,81,63,30.10,29.97,23,4,29,0.37
2013-8-20,66.0,59.3,55.9,57.9,53.7,51.7,93,82,60,30.39,30.10,13,4,18,0.00
2013-8-21,69.2,60.7,50.8,54.1,48.9,-99.9,93,68,42,30.39,30.25,9,2,15,0.00
2013-8-22,71.0,61.5,52.5,54.1,49.9,-99.9,88,68,46,30.25,30.14,8,1,14,0.00
2013-8-23,71.6,62.9,53.3,54.2,51.7,49.0,91,69,46,30.15,30.07,12,3,19,0.00
2013-8-24,73.7,65.4,57.5,55.7,53.1,50.5,83,66,47,30.10,29.91,19,4,19,0.00
2013-8-25,63.5,58.9,56.2,56.0,53.5,50.4,97,83,72,29.94,29.88,13,5,20,0.35
2013-8-26,62.3,58.6,55.6,56.0,53.9,50.1,98,85,65,30.04,29.93,12,4,16,0.38
2013-8-27,62.0,57.7,55.2,53.6,51.7,49.4,93,81,71,30.03,29.99,9,4,14,0.00
2013-8-28,65.5,60.1,54.3,55.4,53.8,52.0,95,81,64,30.13,29.97,9,3,13,0.09
2013-8-29,72.6,63.6,54.8,56.2,51.0,45.2,82,65,40,30.21,30.13,8,2,12,0.00
2013-8-30,74.9,64.4,52.7,56.6,51.2,48.6,90,65,41,30.19,30.10,8,2,10,0.00
2013-8-31,75.0,66.6,59.0,55.5,53.0,50.2,76,63,43,30.12,30.05,12,5,19,0.00
2013-9-1,63.0,58.0,52.8,57.3,47.2,39.3,95,69,44,30.26,30.11,13,4,19,0.17
2013-9-2,63.1,56.4,51.2,54.3,47.9,42.9,85,74,58,30.26,30.15,16,7,23,0.01
2013-9-3,66.4,63.2,61.0,58.6,56.6,54.4,85,79,73,30.34,30.14,21,7,27,0.00
2013-9-4,73.0,65.4,60.7,60.8,58.7,57.8,92,80,61,30.34,30.20,7,1,9,0.00
2013-9-5,74.7,64.9,55.6,59.7,56.9,54.4,98,77,55,30.21,30.04,7,1,9,0.00
2013-9-6,75.7,70.1,60.0,56.4,53.5,50.1,85,57,42,30.05,29.96,15,4,18,0.00
2013-9-7,78.5,66.6,53.9,57.5,52.7,50.0,87,63,41,30.13,30.02,10,3,15,0.00
2013-9-8,77.6,67.4,57.4,59.1,53.8,47.0,73,62,49,30.13,30.00,9,4,13,0.00
2013-9-9,67.2,60.9,53.9,58.7,53.1,45.4,96,77,51,30.11,29.86,21,4,24,0.22
2013-9-10,64.6,54.4,48.9,54.4,48.9,44.9,95,83,56,30.11,29.95,12,4,17,0.19
2013-9-11,59.9,53.7,48.6,48.9,47.2,44.8,94,79,60,30.04,29.94,14,5,20,0.00
2013-9-12,58.8,53.2,50.6,49.5,48.1,45.7,92,83,65,30.03,29.91,10,3,14,0.19
2013-9-13,60.3,55.3,50.6,53.3,49.6,48.0,92,82,67,30.11,30.03,12,4,17,0.02
2013-9-14,69.2,59.8,53.5,55.1,51.0,47.0,90,74,47,30.07,29.93,15,5,20,0.00
2013-9-15,66.7,60.4,56.5,59.9,56.6,54.1,96,88,72,29.94,29.76,9,3,12,0.04
2013-9-16,57.7,55.6,52.9,55.6,52.7,50.0,96,90,78,29.76,29.55,13,4,19,0.09
2013-9-17,55.8,49.2,45.3,51.8,43.6,36.7,97,82,49,29.74,29.54,21,6,23,0.07
2013-9-18,54.7,47.8,42.2,53.8,45.7,39.7,97,93,85,29.71,29.48,12,5,16,0.15
2013-9-19,56.7,50.5,46.1,48.0,44.0,41.8,91,79,58,29.98,29.65,15,6,25,0.04
2013-9-20,58.1,52.2,48.7,52.2,48.2,44.0,90,86,81,30.10,29.95,13,5,16,0.06
2013-9-21,56.2,53.1,52.0,50.5,49.8,48.9,91,89,77,30.26,30.10,12,6,19,0.01
2013-9-22,60.3,58.1,55.8,51.5,49.8,47.8,83,74,65,30.37,30.26,13,4,14,0.00
2013-9-23,62.1,58.3,53.7,53.8,51.5,49.2,91,79,68,30.26,30.10,19,7,22,0.00
2013-9-24,62.8,58.2,55.5,52.9,51.4,49.6,87,78,69,30.10,29.96,14,4,16,0.00
2013-9-25,60.7,55.7,51.9,53.7,50.8,48.0,90,84,76,29.99,29.85,8,2,12,0.00
2013-9-26,64.1,56.0,49.9,55.6,52.1,45.8,95,87,61,30.02,29.80,18,6,27,0.02
2013-9-27,54.9,51.1,46.6,42.5,40.7,39.0,76,68,61,30.12,30.08,7,2,9,0.00
2013-9-28,57.3,48.3,36.1,41.7,39.5,34.1,94,73,53,30.10,30.02,7,2,13,0.00
2013-9-29,56.5,48.7,41.7,42.6,40.3,38.2,91,74,53,30.06,29.98,18,7,29,0.00
2013-9-30,55.7,47.3,41.0,40.6,37.9,35.7,87,71,50,29.99,29.92,16,6,20,0.00
2013-10-1,54.1,45.2,38.4,38.0,35.7,33.9,87,70,48,30.14,29.96,14,4,16,0.00
2013-10-2,52.0,44.0,37.8,38.1,33.5,29.9,88,68,45,30.41,30.14,15,4,18,0.00
2013-10-3,51.9,42.8,34.0,33.8,31.8,29.1,92,67,45,30.45,30.38,20,5,22,0.00
2013-10-4,56.2,44.2,33.4,33.9,31.2,28.9,88,63,38,30.42,30.27,13,4,16,0.00
2013-10-5,56.3,45.7,35.3,40.8,35.2,30.5,83,68,50,30.27,30.11,9,2,15,0.00
2013-10-6,58.9,50.2,44.0,44.1,41.7,39.2,88,73,55,30.35,30.16,5,1,6,0.00
2013-10-7,55.1,50.0,45.1,47.4,44.7,41.8,92,82,70,30.41,30.35,6,1,7,0.00
2013-10-8,61.3,50.8,41.9,48.6,45.3,41.1,98,83,61,30.37,30.25,8,1,9,0.00
2013-10-9,55.1,50.6,43.1,49.1,46.4,41.2,95,86,76,30.25,29.95,8,3,9,0.00
2013-10-10,61.5,52.3,45.1,50.6,47.5,43.7,96,85,64,29.95,29.70,15,6,22,0.80
2013-10-11,50.5,45.6,43.6,49.9,44.2,-99.9,98,96,95,29.94,29.84,11,4,13,0.03
2013-10-13,56.0,51.4,46.1,44.5,43.4,41.8,89,75,63,30.22,30.18,12,2,14,0.00
2013-10-14,57.5,46.4,36.0,48.7,43.3,35.2,98,90,69,30.23,30.12,6,2,7,0.00
2013-10-15,56.2,48.2,42.3,50.0,45.0,41.5,98,89,74,30.11,29.79,11,4,19,0.00
2013-10-16,51.2,47.4,45.3,45.6,43.2,41.3,91,86,75,30.05,29.77,15,5,20,0.02
2013-10-17,56.1,46.4,37.4,48.4,42.8,36.3,98,88,72,30.04,29.91,18,6,25,0.09
2013-10-18,53.5,50.1,46.5,48.4,43.1,41.2,87,77,67,30.20,29.91,18,6,29,0.06
2013-10-19,58.7,48.0,40.3,46.5,43.0,38.2,95,84,61,30.20,30.06,10,3,13,0.00
2013-10-20,62.2,53.0,45.9,54.6,48.8,43.5,97,86,69,30.11,30.05,8,3,14,0.18
2013-10-21,66.0,58.8,53.5,55.2,53.7,51.8,97,84,67,30.11,30.05,15,5,20,0.00
2013-10-22,66.0,57.9,50.6,58.6,53.2,49.2,96,85,69,30.09,29.96,10,3,14,0.00
2013-10-23,63.7,56.4,50.9,55.8,53.2,50.0,98,90,75,30.01,29.89,6,2,9,0.00
2013-10-24,66.0,59.2,54.8,54.0,52.1,50.2,93,78,59,30.18,30.00,14,4,18,0.00
2013-10-25,57.1,52.1,45.2,52.8,49.9,44.3,98,92,84,30.17,30.09,4,1,10,0.00
2013-10-26,68.4,57.5,49.0,57.7,52.5,48.6,99,85,67,30.11,30.02,13,4,15,0.00
2013-10-27,64.9,59.1,53.4,54.2,49.8,-99.9,92,73,56,30.02,29.79,27,8,32,0.00
2013-10-28,73.1,61.3,52.9,52.6,47.8,41.7,79,63,33,29.92,29.67,20,7,29,0.00
2013-10-29,61.1,54.0,49.0,46.5,44.8,42.8,83,71,55,30.11,29.84,19,7,21,0.00
2013-10-30,54.9,49.1,41.5,44.5,39.2,33.1,87,70,48,30.40,30.11,14,5,19,0.00
2013-10-31,51.8,43.7,34.6,39.2,36.1,31.9,90,75,60,30.42,30.24,6,2,9,0.00
2013-11-1,50.3,44.4,38.3,42.8,39.6,35.2,93,84,67,30.25,30.02,11,3,13,0.00
2013-11-2,56.8,49.6,42.8,53.1,46.4,40.3,96,89,82,30.02,29.73,18,5,25,0.02
2013-11-3,56.4,50.1,44.3,51.7,44.9,37.2,94,83,74,29.82,29.62,18,6,26,0.07
2013-11-4,53.1,47.3,40.7,42.7,38.7,35.4,84,73,53,29.81,29.35,18,7,23,0.00
2013-11-5,51.9,43.7,37.5,43.9,37.8,32.0,93,80,72,29.59,29.36,17,6,22,0.02
2013-11-6,39.0,37.5,36.7,35.9,35.1,32.0,94,91,78,29.61,29.45,9,7,12,0.07
2013-11-7,60.7,56.5,52.2,51.5,49.9,47.5,89,79,71,29.91,29.76,30,8,30,0.02
2013-11-8,62.0,55.8,51.5,51.7,49.1,46.4,88,79,66,29.91,29.78,20,5,25,0.00
2013-11-9,56.6,49.5,41.8,49.7,43.9,37.9,92,81,69,29.95,29.77,15,5,21,0.03
2013-11-10,47.2,42.1,38.9,42.1,38.6,36.3,95,88,75,30.06,29.67,16,5,21,0.17
2013-11-11,42.4,41.1,39.6,38.0,36.2,32.9,90,83,70,30.54,30.06,10,3,13,0.00
2013-11-12,45.5,40.3,35.8,35.2,33.3,30.2,88,76,64,30.53,30.30,5,1,7,0.00
2013-11-13,43.3,38.6,34.2,39.6,35.1,32.1,93,87,78,30.48,30.31,6,2,9,0.00
2013-11-14,36.8,33.7,30.7,33.8,32.4,29.1,97,95,88,30.43,30.18,7,2,9,0.00
2013-11-15,39.2,36.1,33.3,37.0,34.6,32.0,96,95,92,30.48,30.21,6,1,9,0.03
2013-11-16,46.0,41.4,38.1,40.0,38.3,36.6,96,89,79,30.51,30.38,7,2,11,0.00
2013-11-17,38.9,34.6,31.4,37.3,33.9,30.6,99,97,94,30.38,30.19,7,2,10,0.00
2013-11-18,42.6,39.9,36.8,40.9,38.5,36.5,99,95,88,30.19,29.90,10,4,12,0.00
2013-11-19,44.8,43.0,40.4,42.3,40.3,38.4,97,90,87,29.91,29.64,11,4,19,0.00
2013-11-20,43.8,40.6,37.7,42.2,38.7,34.8,97,93,87,29.68,29.56,15,4,21,0.09
2013-11-21,42.0,39.2,37.1,40.5,35.9,31.8,96,88,79,29.68,29.57,12,3,15,0.00
2013-11-22,45.7,43.4,41.6,41.4,40.4,38.3,97,90,76,29.85,29.62,14,4,14,0.00
2013-11-25,34.5,31.8,30.3,28.0,25.5,23.7,88,77,74,30.36,30.27,14,6,18,0.00
2013-11-26,33.1,30.4,27.8,27.8,26.2,24.5,92,85,72,30.54,30.36,16,6,19,0.00
2013-11-27,34.3,28.9,23.8,24.6,22.7,20.4,89,78,62,30.59,30.50,13,4,16,0.00
2013-11-28,36.5,33.1,29.4,33.0,28.7,22.1,93,84,73,30.50,30.33,21,10,26,0.01
2013-11-29,39.2,36.5,34.5,34.0,33.0,32.1,93,87,80,30.35,29.86,20,8,24,0.02
2013-11-30,40.2,37.4,34.4,35.0,33.9,32.6,95,87,80,30.31,29.85,18,8,24,0.03
2013-12-1,40.9,38.2,36.2,36.3,33.8,31.8,92,84,76,30.41,30.31,14,6,19,0.00
2013-12-2,42.1,38.8,33.9,37.0,34.2,31.2,90,84,72,30.65,30.41,10,3,16,0.00
2013-12-3,36.9,31.1,24.5,31.4,28.2,23.0,96,89,75,30.62,30.42,5,1,6,0.00
2013-12-4,35.7,29.3,23.6,31.6,27.0,22.6,97,91,83,30.42,30.27,20,5,25,0.00
2013-12-5,40.4,36.9,33.4,35.8,32.1,29.1,91,83,73,30.36,29.67,26,10,42,0.04
2013-12-6,39.1,33.6,29.2,35.3,26.2,21.7,94,75,61,30.01,29.70,33,12,42,0.00
2013-12-7,34.8,33.0,28.8,31.9,26.6,22.9,95,77,67,30.26,30.00,27,11,35,0.05
2013-12-8,41.8,38.5,34.7,36.5,34.6,32.0,90,86,80,30.33,30.23,20,8,23,0.00
2013-12-9,44.1,42.6,41.0,40.2,38.6,36.3,90,86,83,30.47,30.19,21,9,30,0.05
2013-12-10,47.2,44.4,42.4,43.5,41.5,39.6,94,90,85,30.66,30.47,11,4,14,0.00
2013-12-11,43.2,40.9,38.5,40.7,38.7,37.1,95,92,90,30.65,30.58,7,2,9,0.00
2013-12-12,38.4,34.1,31.7,37.3,33.4,31.2,98,98,95,30.60,30.46,6,2,9,0.00
2013-12-13,31.7,31.1,30.5,31.2,30.6,30.0,98,98,98,30.46,30.34,5,2,7,0.00
2013-12-14,31.4,31.4,31.4,30.9,30.9,30.9,98,98,98,30.35,30.27,1,1,0,0.00
2013-12-15,41.2,38.8,37.0,34.8,32.9,31.5,84,79,75,30.54,30.47,16,6,20,0.00
2013-12-16,46.8,38.2,32.7,36.0,31.7,28.6,89,78,57,30.55,30.50,8,3,12,0.00
2013-12-17,37.5,30.6,26.3,30.9,27.7,25.0,96,89,74,30.50,30.45,8,2,10,0.00
2013-12-18,29.8,27.8,25.9,27.1,26.2,25.0,97,94,89,30.45,30.22,9,3,11,0.00
2013-12-19,30.9,28.8,26.3,27.1,25.7,24.1,94,88,85,30.22,30.05,14,6,17,0.00
2013-12-20,37.7,33.2,30.5,35.0,30.0,26.8,95,88,81,30.55,30.16,18,4,19,0.00
2013-12-21,40.7,35.6,31.1,34.1,31.5,29.3,94,86,71,30.59,30.39,14,4,19,0.00
2013-12-22,48.8,40.9,32.5,42.6,35.9,29.8,96,83,73,30.39,30.16,22,4,24,0.00
2013-12-23,49.4,46.0,41.8,41.5,39.6,37.6,86,78,66,30.21,30.00,16,6,20,0.00
2013-12-24,41.6,37.3,32.2,37.5,33.9,30.4,94,88,79,30.00,29.67,15,5,19,0.00
2013-12-25,43.7,38.9,35.0,40.3,36.7,33.7,96,92,87,29.67,29.42,9,2,9,0.00
2013-12-26,52.2,42.2,36.4,43.4,39.1,35.3,97,89,72,29.64,29.35,11,3,12,0.00
2013-12-27,46.4,42.1,37.7,39.5,37.4,34.3,95,84,70,29.87,29.64,12,6,18,0.00
2013-12-28,38.8,36.1,33.1,36.1,34.0,31.3,97,92,88,29.85,29.78,12,4,15,0.00
2013-12-29,42.8,39.5,34.4,37.8,34.8,33.1,97,84,72,30.33,29.84,19,5,23,0.00
2013-12-30,41.0,35.9,31.6,34.2,31.5,28.4,91,84,70,30.46,30.33,12,4,13,0.00
2013-12-31,34.2,29.5,24.0,33.7,27.6,22.5,100,93,88,30.38,30.14,4,1,7,0.00
2014-1-1,37.5,35.2,32.9,33.3,32.1,29.8,94,89,83,30.14,29.99,8,2,19,0.00
2014-1-2,37.5,35.0,31.0,33.9,31.8,28.9,100,88,83,29.99,29.88,8,3,11,0.00